Location: Allison Elementary School
(34.0784°N, 117.7317°W)
Time: 04:43:12
(UTC+00:00)

GPS 2-04 Rocket1 - Pass Details

Date: 15 November 2019
Orbit: 419 x 552 km, 35.6° (Epoch: 13 December)

Event Time Altitude Azimuth Distance (km) Brightness Sun altitude
Rises 02:28:54 0° 236° (SW) 2,359 7.2 -21.0°
Reaches altitude 10° 02:31:06 10° 228° (SW) 1,489 5.8 -21.5°
Enters shadow 02:33:30 33° 192° (SSW) 717 3.5 -21.9°
